Regional Weather Roundup
Issued by NWS Boston, MA

Current Version | Previous Version | Text Only | Print | Product List | Glossary Off
Versions: 1 2 3 4 5 6 7 8 9 10 11 12 13 14 15 16 17 18 19 20 21 22 23 24 25 26 27 28 29 30 31 32 33 34 35 36 37 38 39 40 41 42 43 44 45 46 47 48 49 50
000 ASUS41 KBOX 271210 RWRBOX REGIONAL WEATHER ROUNDUP NATIONAL WEATHER SERVICE TAUNTON MA 800 AM EDT THU APR 27 2017 NOTE: "FAIR" INDICATES FEW OR NO CLOUDS BELOW 12,000 FEET WITH NO SIGNIFICANT WEATHER AND/OR OBSTRUCTIONS TO VISIBILITY. MAZALL-271300- EASTERN MASSACHUSETTS CITY SKY/WX TMP DP RH WIND PRES REMARKS BOSTON FOG 51 51 100 E5 29.92R VSB 1/2 6HR MIN TEMP: 50; 6HR MAX TEMP: 51; BEVERLY FOG 51 51 100 N7 29.91R VSB 1/2 LAWRENCE FOG 54 53 97 NE6 29.92R VSB 1 BEDFORD CLOUDY 54 50 86 CALM 29.91R BLUE HILL N/A 51 50 96 NE3 29.90R NORWOOD CLOUDY 54 52 93 E3 29.91R FOG MARSHFIELD FOG 52 52 100 CALM 29.91R VSB<1/4 PLYMOUTH CLOUDY 53 50 89 CALM 29.91R TAUNTON CLOUDY 53 52 96 NW3 29.91R FOG NEW BEDFORD CLOUDY 54 54 100 CALM 29.90R $$ MAZALL-271300- CAPE COD AND THE ISLANDS CITY SKY/WX TMP DP RH WIND PRES REMARKS FALMOUTH CLOUDY 52 52 100 MISG 29.92R HYANNIS FOG 50 49 96 NW6 29.90R VSB 3/4 CHATHAM FOG 52 52 100 CALM 29.91R VSB 1/2 PROVINCETOWN CLOUDY 49 48 97 NW5 29.92R NANTUCKET FOG 51 50 96 SE7 29.90R VSB 1/4 MARTHAS VNYRD CLOUDY 55 53 93 N8 29.91R FOG $$ MAZALL-271300- CENTRAL AND WESTERN MASSACHUSETTS CITY SKY/WX TMP DP RH WIND PRES REMARKS WORCESTER FOG 52 51 97 CALM 29.92R VSB 1/4 6HR MIN TEMP: 51; 6HR MAX TEMP: 53; FITCHBURG CLOUDY 56 54 93 CALM 29.92S ORANGE CLOUDY 55 54 96 CALM 29.91R SPRINGFIELD CLOUDY 56 56 99 NW5 29.90R WESTFIELD CLOUDY 57 56 96 NW5 29.91R FOG NORTH ADAMS CLOUDY 56 53 90 VRB5 29.90R PITTSFIELD CLOUDY 55 53 93 E5 29.90R FOG $$ RIZALL-271300- RHODE ISLAND CITY SKY/WX TMP DP RH WIND PRES REMARKS PROVIDENCE CLOUDY 55 55 100 N5 29.92R 6HR MIN TEMP: 54; 6HR MAX TEMP: 56; NEWPORT CLOUDY 54 54 100 NW6 29.91R FOG BLOCK ISLAND LGT RAIN 54 54 100 W3 29.93R VSB 1 SMITHFIELD FOG 53 53 100 NW3 29.92R VSB 1/4 WESTERLY CLOUDY 58 57 97 CALM 29.92R FOG $$ CTZALL-271300- CONNECTICUT CITY SKY/WX TMP DP RH WIND PRES REMARKS BRADLEY INTL PTSUNNY 57 56 96 N5 29.91R 6HR MIN TEMP: 56; 6HR MAX TEMP: 57; 6HR PCP: TRACE; HARTFORD CLOUDY 58 57 97 NE3 29.91R BRIDGEPORT FOG 56 54 93 S3 29.91R VSB 1/2 DANBURY CLOUDY 57 57 100 CALM 29.92R FOG GROTON FOG 54 53 97 SW3 29.91R VSB 1 NEW HAVEN CLOUDY 56 55 97 W5 29.91R FOG CHESTER CLOUDY 59 59 100 CALM 29.91R FOG MERIDEN CLOUDY 59 56 89 CALM 29.92R FOG WILLIMANTIC CLOUDY 59 57 93 CALM 29.92R OXFORD CLOUDY 57 54 88 CALM 29.93R FOG $$ MEZ002-015-021-024-NHZ003-005-008-011-012-014-VTZ005-008-271300- NORTHERN NEW ENGLAND CITY SKY/WX TMP DP RH WIND PRES REMARKS PORTLAND ME FOG 49 48 97 E3 29.94R VSB 1/2 6HR MIN TEMP: 48; 6HR MAX TEMP: 50; 6HR PCP: TRACE; BANGOR ME CLOUDY 55 53 93 E6 29.95S CONCORD NH CLOUDY 56 54 93 N5 29.91R MANCHESTER NH CLOUDY 55 52 89 CALM 29.90R FOG NASHUA NH CLOUDY 55 54 96 NE5 29.92R PORTSMOUTH NH FOG 51 51 99 NE7 29.90R VSB 3/4 JAFFREY NH CLOUDY 53 53 100 CALM 29.92R FOG KEENE NH CLOUDY 54 54 100 CALM 29.92R FOG BURLINGTON VT MOSUNNY 64 56 75 S7 29.84R MT. WASHINGTON PTSUNNY 46 45 93 SE18 N/A $$ NYZ052-076-271300- EASTERN NEW YORK CITY SKY/WX TMP DP RH WIND PRES REMARKS ALBANY CLOUDY 61 54 77 VRB5 29.88R 6HR MIN TEMP: 57; 6HR MAX TEMP: 61; NEW YORK CITY CLOUDY 59 57 93 CALM 29.90R FOG 6HR MIN TEMP: 56; 6HR MAX TEMP: 61; 6HR PCP: 0.01; $$ ANZALL-271300- MARINE OBSERVATIONS STATION/POSITION TIME TEMP WIND PRES VSBY WAVE AIR SEA DIR/SP/G HT/PER (UTC) (F) (DEG/KT/KT) (MB) (MI) (FT/S) BOSTON BUOY 1050 47 45 330/ 4/ 6 1011.7 5/11 BUZZARDS BAY NOT AVBL NANTUCKET SOUND 1150 47 1012.5R 1/ 4 MASS BAY-STELLWA 1104 46 45 340/ 4/ 6 1012.1R 7/14 ISLE OF SHOALS NOT AVBL S OF BLOCK IS 1155 47 N/A 8/10 $$ ......................KEY......................... SKY/WX - SKY CONDITION/PRESENT WEATHER TMP - TEMPERATURE IN FAHRENHEIT DWPT - DEWPOINT IN FAHRENHEIT RH - RELATIVE HUMIDITY IN PERCENT WIND - DIRECTION AND SPEED IN MPH PRES - MEAN SEA LEVEL PRESSURE IN INCHES OF HG WCI - WIND CHILL INDEX VSB - VISIBILITY IN MILES HX - HEAT INDEX TC - TEMPERATURE IN CELSIUS VRB - VARIABLE WIND DIRECTION N/A - NOT AVAILABLE

USA.gov is the U.S. government's official web portal to all federal, state and local government web resources and services.